This demonstration page uses our WeatherBlox Daily Observations layout. Learn more.

Left ArrowRight Arrow

Hourly Observations for April 17, 2021

Temp ( °F °C ) Dew Point ( °F °C ) Humidity (%) Winds ( mph kmh ) Pressure ( in mb ) Visibility ( mi km ) Precip ( " mm )
12:59 am 00:59 Clear 55 12.8 37 2.8 51 51 N 8 13 29.85 1011 10 16 0.00 0.00
1:59 am 01:59 Clear 53 11.7 37 2.8 55 55 N 8 13 29.85 1011 10 16 0.00 0.00
2:59 am 02:59 Clear 53 11.7 36 2.2 52 52 NNW 10 17 29.85 1011 10 16 0.00 0.00
3:59 am 03:59 Clear 52 11.1 35 1.7 53 53 N 7 11 29.84 1011 10 16 0.00 0.00
4:59 am 04:59 Clear 52 11.1 37 2.8 57 57 N 8 13 29.84 1011 10 16 0.00 0.00
5:59 am 05:59 Clear 50 10 38 3.3 63 63 NNW 5 7 29.85 1011 10 16 0.00 0.00
6:59 am 06:59 Mostly Sunny 47 8.3 38 3.3 71 71 Calm 29.87 1012 10 16 0.00 0.00
7:59 am 07:59 Mostly Sunny 54 12.2 39 3.9 57 57 NW 6 9 29.88 1012 10 16 0.00 0.00
8:59 am 08:59 Mostly Sunny 56 13.3 38 3.3 51 51 NW 3 6 29.89 1012 10 16 0.00 0.00
9:59 am 09:59 Partly Cloudy 57 13.9 37 2.8 47 47 VRB 5 7 29.88 1012 10 16 0.00 0.00
10:59 am 10:59 Mostly Cloudy 59 15 38 3.3 46 46 NW 7 11 29.88 1012 10 16 0.00 0.00
11:59 am 11:59 Mostly Cloudy 60 15.6 38 3.3 44 44 W 9 15 29.87 1011 10 16 0.00 0.00
12:59 pm 12:59 Mostly Cloudy 62 16.7 39 3.9 43 43 WNW 8 13 29.85 1011 10 16 0.00 0.00
1:59 pm 13:59 Mostly Cloudy 64 17.8 40 4.4 41 41 VRB 5 7 29.84 1010 10 16 0.00 0.00
2:59 pm 14:59 Mostly Cloudy 66 18.9 40 4.4 39 39 WNW 7 11 29.82 1010 10 16 0.00 0.00
3:59 pm 15:59 Cloudy 65 18.3 41 5 42 42 WNW 8 13 29.80 1009 10 16 0.00 0.00
4:59 pm 16:59 Cloudy 61 16.1 43 6.1 52 52 ESE 9 15 29.80 1009 10 16 0.00 0.00
5:59 pm 17:59 Mostly Cloudy 60 15.6 42 5.6 52 52 ESE 9 15 29.81 1009 10 16 0.00 0.00
6:59 pm 18:59 Mostly Cloudy 59 15 43 6.1 56 56 SE 8 13 29.81 1010 10 16 0.00 0.00
7:59 pm 19:59 Mostly Cloudy 58 14.4 43 6.1 58 58 SE 8 13 29.84 1011 10 16 0.00 0.00
8:59 pm 20:59 Cloudy 56 13.3 43 6.1 62 62 ESE 7 11 29.86 1011 10 16 0.00 0.00
9:59 pm 21:59 Cloudy 55 12.8 42 5.6 62 62 ESE 5 7 29.88 1012 10 16 0.00 0.00
10:59 pm 22:59 Mostly Cloudy 54 12.2 41 5 62 62 ESE 6 9 29.88 1012 10 16 0.00 0.00
11:59 pm 23:59 Mostly Cloudy 54 12.2 40 4.4 59 59 SE 7 11 29.86 1011 10 16 0.00 0.00

Powered by AerisWeather